Location: Campbell Hill
(37.9301°N, 89.5490°W)
Time: 09:52:32
(UTC+00:00)

CZ-2D R/B - Pass Details

Date: 07 November 2025
Orbit: 404 x 413 km, 97.4° (Epoch: 07 December)

Event Time Altitude Azimuth Distance (km) Brightness Sun altitude
Rises 23:21:34 0° 158° (SSE) 2,350 6.5 -6.2°
Reaches altitude 10° 23:23:35 10° 154° (SSE) 1,489 5.4 -6.6°
Maximum altitude 23:26:41 54° 76° (ENE) 513 2.8 -7.2°
Drops below altitude 10° 23:29:48 10° 358° (N) 1,491 5.4 -7.8°
Sets 23:31:49 0° 354° (N) 2,354 6.5 -8.2°
